Location: Ch�teau-Arnoux
(44.0814°N, 6.0027°E)
Time: 01:11:30
(UTC+00:00)

STARLINK-80 - Pass Details

Date: 15 November 2019
Orbit: 492 x 497 km, 53.0° (Epoch: 06 December)

Event Time Altitude Azimuth Distance (km) Brightness Sun altitude
Exits shadow 04:40:51 40° 214° (SW) 742 4.0 -19.7°
Maximum altitude 04:42:05 71° 143° (SE) 529 3.6 -19.5°
Drops below altitude 10° 04:45:55 10° 59° (ENE) 1,700 6.8 -18.8°
Sets 04:48:06 0° 57° (ENE) 2,587 7.8 -18.4°
